Regional Weather Roundup
Issued by NWS

Home | Current Version | Previous Version | Graphics & Text | Print | Product List | Glossary On
Versions: 1 2 3 4 5 6 7 8 9 10 11 12 13 14 15 16 17 18 19 20 21 22 23 24 25 26 27 28 29 30 31 32 33 34 35 36 37 38 39 40 41 42 43 44 45 46 47 48 49 50
000
ASUS43 KMKX 041200
RWRWI

WISCONSIN REGIONAL WEATHER ROUNDUP
NATIONAL WEATHER SERVICE MILWAUKEE/SULLIVAN WI
700 AM CDT FRI SEP 04 2015

NOTE: "FAIR" INDICATES FEW OR NO CLOUDS BELOW 12,000 FEET WITH NO
SIGNIFICANT WEATHER AND/OR OBSTRUCTIONS TO VISIBILITY.

WIZ001-002-006>008-014>016-023>028-041300-
NORTHWEST WISCONSIN

CITY           SKY/WX    TMP DP  RH WIND       PRES   REMARKS
SUPERIOR ARPT  CLOUDY    58  58  98 NE8       30.00R
ASHLAND        FOG       49  49 100 CALM      30.02R VSB<1/4
6HR MIN TEMP:  48; 6HR MAX TEMP:  52;

HAYWARD        CLOUDY    67  61  81 VRB6      30.02R
6HR MIN TEMP:  58; 6HR MAX TEMP:  67;

SIREN          CLEAR     69  64  85 SE9       29.96S
CUMBERLAND     CLOUDY    66  63  88 E8        30.00R
RICE LAKE      CLOUDY    67  63  86 E7        30.01S
CHETEK         CLOUDY    68  64  88 E8G16     30.00S
LADYSMITH      CLEAR     62  61  95 E5        30.04S
EAU CLAIRE     NOT AVBL
MENOMONIE      CLEAR     67  65  94 E5        29.98S
NEW RICHMOND   CLEAR     67  63  86 SE8       29.96R
OSCEOLA        CLEAR     69  65  88 SE9       29.97S
$$

WIZ003>005-009-010-017-018-041300-
NORTH CENTRAL WISCONSIN

CITY           SKY/WX    TMP DP  RH WIND       PRES   REMARKS
MANITOWISH WTR FOG       54  54 100 CALM      30.06R VSB 1/2
ARBOR VITAE      N/A     57  56  98 CALM      30.07R FOG
WOODRUFF         N/A     57  56  98 CALM      30.07R FOG
RHINELANDER    PTCLDY    58  56  93 CALM      30.08R FOG
6HR MIN TEMP:  56; 6HR MAX TEMP:  62;

EAGLE RIVER    CLEAR     52  52 100 CALM      30.07R FOG
LAND O LAKES   FOG       53  53 100 CALM      30.09R VSB 1/2
PHILLIPS       CLEAR     55  55 100 CALM      30.04S FOG
TOMAHAWK       FOG       51  50  97 CALM      30.06S VSB<1/4
MEDFORD        CLEAR     61  60  98 E5        30.04S
MERRILL        FOG       53  53 100 CALM      30.06R VSB 1/4
$$

WIZ029-030-035-036-043>047-041300-
CENTRAL WISCONSIN

CITY           SKY/WX    TMP DP  RH WIND       PRES   REMARKS
WAUSAU         CLEAR     60  59  96 CALM      30.04R FOG
6HR MIN TEMP:  60; 6HR MAX TEMP:  65;

MOSINEE        FOG       59  59 100 E5        30.05R VSB 1/8
MARSHFIELD     PTCLDY    63  59  87 E3        30.04R FOG
6HR MIN TEMP:  62; 6HR MAX TEMP:  67;

STEVENS POINT  FOG       60  60 100 NE6       30.04R VSB 1/2
WAUPACA        CLOUDY    66  65  97 CALM      30.04R FOG
WAUTOMA        FOG       64  64 100 NE5       30.03S VSB 1
WISC RAPIDS    CLOUDY    64  61  90 E5        30.04R FOG
6HR MIN TEMP:  62; 6HR MAX TEMP:  67;

CAMP DOUGLAS   NOT AVBL
$$

WIZ011>013-019>022-031-037>040-048>050-041300-
NORTHEAST WISCONSIN

CITY           SKY/WX    TMP DP  RH WIND       PRES   REMARKS
ANTIGO         CLEAR     56  56 100 CALM      30.06R FOG
SHAWANO        NOT AVBL
OCONTO         CLEAR     62  62 100 NE6       30.01S
STURGEON BAY   PTCLDY    64  61  88 NW3       30.04R
6HR MIN TEMP:  63; 6HR MAX TEMP:  66;

GREEN BAY      CLOUDY    66  64  93 N5        30.02  FOG
6HR MIN TEMP:  64; 6HR MAX TEMP:  68;

MANITOWOC      CLOUDY    66  66 100 MISG      30.02R
APPLETON       CLOUDY    64  64 100 N6        30.01R FOG
CLINTONVILLE   CLOUDY    63  61  94 CALM      30.03S
OSHKOSH        CLOUDY    68  64  87 E6        30.02R
6HR MIN TEMP:  62; 6HR MAX TEMP:  68;

$$

WIZ032>034-041-042-053>061-041300-
SOUTHWEST WISCONSIN

CITY           SKY/WX    TMP DP  RH WIND       PRES   REMARKS
LA CROSSE      CLEAR     69  65  86 S6        29.98R FOG
6HR MIN TEMP:  68; 6HR MAX TEMP:  73;

SPARTA         CLOUDY    68  64  84 CALM      30.01R
VIROQUA          N/A     66  66 100 E7        30.01R
BOSCOBEL       CLEAR     68  66  93 CALM      29.99R
6HR MIN TEMP:  67; 6HR MAX TEMP:  73;

PRAIRIE DU CHI PTCLDY    69  65  88 CALM      29.98R
PLATTEVILLE    CLEAR     68  67  98 E7        30.00R
$$

WIZ056-057-062-063-064-067-068-041300-
SOUTH CENTRAL WISCONSIN

CITY           SKY/WX    TMP DP  RH WIND       PRES   REMARKS
REEDSBURG      CLOUDY    68  66  95 E3        30.00R
BARABOO/DELLS  CLOUDY    67  64  90 E3        30.02R
LONE ROCK      NOT AVBL
MINERAL POINT  CLEAR     68  66  94 E5        30.01R FOG
MADISON        PTCLDY    68  65  90 CALM      30.00S
6HR MIN TEMP:  68; 6HR MAX TEMP:  72;

MIDDLETON      MOCLDY    69  68  98 CALM      30.01R
WATERTOWN      CLEAR     64  64 100 NE3       30.00S FOG
MONROE         FOG       64  64 100 CALM      30.00S VSB 1/4
JANESVILLE     PTCLDY    66  64  94 CALM      29.99R FOG
$$

WIZ051-052-058>065-066-070>072-041300-
SOUTHEAST WISCONSIN

CITY           SKY/WX    TMP DP  RH WIND       PRES   REMARKS
MILWAUKEE      FOG       65  64  97 N5        30.00R VSB 1/2
6HR MIN TEMP:  64; 6HR MAX TEMP:  68;

WAUKESHA       CLOUDY    63  63 100 NE5       30.02R FOG
MILWAUKEE/TIMM FOG       64  61  88 N6        30.02R VSB 1
RACINE         FOG       64  63  96 N7        30.02R VSB 1/2
6HR MIN TEMP:  64; 6HR MAX TEMP:  67;

BURLINGTON       N/A     63  62  98 CALM      30.00R FOG
KENOSHA        CLEAR     65  64  97 CALM      30.01R FOG
6HR MIN TEMP:  64; 6HR MAX TEMP:  67;

FOND DU LAC    CLOUDY    67  64  90 E3        30.02S
6HR MIN TEMP:  60; 6HR MAX TEMP:  67;

SHEBOYGAN      CLOUDY    67  65  93 N5        30.01S FOG
6HR MIN TEMP:  60; 6HR MAX TEMP:  67; 6HR PCP: TRACE;

WEST BEND      CLOUDY    63  63 100 CALM      30.01S FOG
JUNEAU         FOG       63  63 100 NE7       30.02S VSB 1/4
$$

LSZ147-162-041300-
LAKE SUPERIOR

STATION/POSITION TIME  TEMP    WIND        PRES    WAVE
                       AIR SEA DIR/SP/G            HT/PER
                 (UTC) (F)     (DEG/KT/KT) (MB)    (FT/S)
W MID LAKE BUOY  1050   60 56  100/  8/  8 1016.7R   0
DEVILS ISLAND    1100   60      90/  5/  6 1016.5R
PORT WING        1100   55      60/  8/  9 1015.9S
SAXON HARBOR     1140   55        CALM     1016.3R
$$

LMZ867-665-643>646-041300-
LAKE MICHIGAN

STATION/POSITION TIME  TEMP    WIND        PRES    WAVE
                       AIR SEA DIR/SP/G            HT/PER
                 (UTC) (F)     (DEG/KT/KT) (MB)    (FT/S)
CHAMBERS ISLAND  1100   65     350/  7/  9 1016.3R
S GREEN BAY BUOY 1130   65 66   10/  8/ 12 1017.7R
N MID LAKE BUOY  1050   68 66   20/ 12/ 14 1015.6R   1/ 3
NORTHPORT PIER   1100   67      40/  9/ 11 1016.3R
SISTER BAY       1111   66      50/  3/  6   N/A
ALGOMA LAKESHORE 1044          350/  6/  7   N/A
KEWAUNEE LAKESHO 1100   65      10/  6/ 13 1014.9R
SHEBOYGAN LAKESH 1100   64     350/ 10/ 11 1016.1R
PORT WASHINGTON  1100   67     300/  3/  5 1016.3S
ATWATER BUOY     1100   60     300/  6/  8 1017.1R
MILWAUKEE LAKESH 1110   65     330/  5/  7   N/A
S MID LAKE BUOY  1050   66 71  350/ 10/ 12 1014.6R   1/ 4
KENOSHA   LAKESH 1100   65     350/  2/  4 1015.2R
$$

TC  - TEMPERATURE IN CELSIUS
VSB - VISIBILITY IN STATUTE MILES
WCI - WIND CHILL INDEX
HX  - HEAT INDEX



USA.gov is the U.S. government's official web portal to all federal, state and local government web resources and services.